Flag for Germany Weather past 2 weeks in Greifswald, Mecklenburg-Western Pomerania, Germany

Now
36 °F

Clear.


Feels Like: 36 °F
Forecast: 34 / 42 °F
Wind: 2 mph from South

Location: Greifswald

Current Time: Feb 28, 2015 at 8:27:19 PM

Latest Report: Feb 28, 2015 at 8:00 PM


Visibility: 22 mi

Pressure: 30.00 "Hg

Humidity: 71%

Dew point: 27 °F

Location of GreifswaldLocation

Historic Weather in Greifswald — Graph

°F

Greifswald temperature yesterday

Maximum temperature yesterday: 49 °F (at 3:00 PM)
Minimum temperature yesterday: 33 °F (at 7:00 AM)
Average temperature yesterday: 38 °F

Past Weeks' High & Low Weather Summary

 TemperatureHumidityPressure
High49 °F (Feb 27, 3:00 PM)99% (Feb 13, 11:00 PM)30.66 "Hg (Feb 13, 11:00 PM)
Low26 °F (Feb 14, 5:00 AM)43% (Feb 19, 3:00 PM)29.26 "Hg (Feb 21, 3:00 PM)
Average37 °F80%30.00 "Hg
* Reported Feb 13 7:00 PM — Feb 28 7:00 PM, Greifswald, Weather by CustomWeather, © 2015

Note: Actual official high and low records may vary slightly from our data, if they occured in-between our weather recording intervals... More about our weather records

Advertising

Greifswald weather history for previous 24 hours

 ConditionsComfort  
Time TempWeatherWind HumidityBarometerVisibility
7:00 PM
Sat, Feb 28
38 °FPassing clouds.3 mph67%30.01 "Hg22 mi
6:00 PM38 °FPassing clouds.2 mph68%30.02 "Hg19 mi
5:00 PM41 °FScattered clouds.3 mph61%30.03 "Hg22 mi
4:00 PM42 °FPartly sunny.3 mph60%30.05 "Hg18 mi
3:00 PM41 °FPartly sunny.5 mph57%30.06 "Hg22 mi
2:00 PM41 °FPartly sunny.3 mph59%30.06 "Hg25 mi
1:00 PM42 °FOvercast.5 mph57%30.07 "Hg25 mi
12:00 PM42 °FPartly sunny.7 mph60%30.08 "Hg19 mi
11:00 AM42 °FScattered clouds.5 mph68%30.07 "Hg17 mi
10:00 AM39 °FScattered clouds.5 mph80%30.07 "Hg17 mi
9:00 AM38 °FPartly sunny.5 mph90%30.05 "Hg10 mi
8:00 AM37 °FLow clouds.5 mph92%30.04 "Hg6 mi
7:00 AM37 °FFog.5 mph95%30.03 "Hg3 mi
6:00 AM36 °FFog.3 mph95%30.02 "Hg2 mi
5:00 AM36 °FLow clouds.3 mph96%30.01 "Hg2 mi
3:00 AM35 °FLight rain. Low clouds.3 mph95%30.00 "Hg4 mi
2:00 AM36 °FLight rain. Low clouds.2 mph94%29.99 "Hg3 mi
1:00 AM35 °FFog.2 mph91%30.00 "Hg3 mi
12:00 AM34 °FFog.2 mph92%29.99 "Hg3 mi
11:00 PM
Fri, Feb 27
33 °FFog.1 mph93%29.98 "Hg3 mi
9:00 PM35 °FPassing clouds.2 mph82%29.97 "Hg5 mi
8:00 PM35 °FPassing clouds.1 mph81%29.96 "Hg5 mi
Weather by CustomWeather, © 2015

See weather overviewHow to use our weather pages